Weather History for Millington, TN

Change the Weather History Date:

Tuesday, August 20, 2013

  Actual Average Record
Temperature  
Mean Temperature 78 °F -  
Max Temperature 89 °F 89 °F 104 °F (2005)
Min Temperature 66 °F 69 °F 64 °F (2012)
Cooling Degree Days 12    
Growing Degree Days 28 (Base 50)    
Moisture  
Dew Point 71 °F    
Average Humidity 85    
Maximum Humidity 100    
Minimum Humidity 55    
Precipitation  
Precipitation 0.00 in - - ()
Sea Level Pressure  
Sea Level Pressure 30.06 in    
Wind  
Wind Speed 1 mph (NE)    
Max Wind Speed 8 mph    
Max Gust Speed -    
Visibility 10 miles    
Events      
Averages and records for this station are not official NWS values.
T = Trace of Precipitation, MM = Missing Value Source: NWS Daily Summary

Daily Weather History Graph

Daily Weather History Graph

Search for Another Location

Airport:

Trip Planner

Search our weather history database for the weather conditions in past years. The results will help you decide how hot, cold, wet, or windy it might be!

Date:

Astronomy

Aug. 20, 2013 Rise Set
Actual Time 6:22 AM CDT 7:41 PM CDT
Civil Twilight 5:56 AM CDT 8:08 PM CDT
Nautical Twilight 5:24 AM CDT 8:40 PM CDT
Astronomical Twilight 4:51 AM CDT 9:13 PM CDT
Moon 7:15 PM CDT (8/20) 5:51 AM CDT (8/20)
Length of Visible Light 14h 12m
Length of Day
13h 18m
Full, 100% of the Moon is Illuminated
Aug 20
Full
Aug 20
Full
Aug 28
Last Quarter
Sep 5
New
Sep 12
First Quarter

Hourly Weather History & Observations

Time (CDT) Temp. Heat Index Dew Point Humidity Pressure Visibility Wind Dir Wind Speed Gust Speed Precip Events Conditions
12:55 AM 71.6 °F - 69.8 °F 94% 30.05 in 10.0 mi Calm Calm - N/A   Partly Cloudy
1:55 AM 69.8 °F - 69.8 °F 100% 30.04 in 10.0 mi Calm Calm - N/A   Clear
2:55 AM 69.8 °F - 69.8 °F 100% 30.04 in 10.0 mi Calm Calm - N/A   Clear
3:15 AM 69.8 °F - 69.8 °F 100% 30.05 in 10.0 mi Calm Calm - N/A   Clear
3:35 AM 69.8 °F - 69.8 °F 100% 30.05 in 10.0 mi Calm Calm - N/A   Clear
3:55 AM 69.8 °F - 69.8 °F 100% 30.04 in 8.0 mi Calm Calm - N/A   Clear
4:15 AM 69.8 °F - 69.8 °F 100% 30.04 in 8.0 mi Calm Calm - N/A   Clear
4:35 AM 69.8 °F - 69.8 °F 100% 30.04 in 10.0 mi Calm Calm - N/A   Clear
4:55 AM 69.8 °F - 69.8 °F 100% 30.05 in 9.0 mi Calm Calm - N/A   Clear
5:15 AM 68.0 °F - 68.0 °F 100% 30.05 in 4.0 mi Calm Calm - N/A   Clear
5:35 AM 68.0 °F - 68.0 °F 100% 30.05 in 10.0 mi Calm Calm - N/A   Scattered Clouds
5:55 AM 66.2 °F - 66.2 °F 100% 30.06 in 10.0 mi Calm Calm - N/A   Scattered Clouds
6:55 AM 66.2 °F - 66.2 °F 100% 30.07 in 10.0 mi ESE 3.5 mph - N/A   Scattered Clouds
7:55 AM 73.4 °F - 71.6 °F 94% 30.08 in 10.0 mi Calm Calm - N/A   Scattered Clouds
8:55 AM 78.8 °F - 73.4 °F 83% 30.09 in 10.0 mi Calm Calm - N/A   Scattered Clouds
9:55 AM 82.4 °F 88.2 °F 73.4 °F 74% 30.10 in 10.0 mi Variable 3.5 mph - N/A   Mostly Cloudy
10:55 AM 84.2 °F 90.9 °F 73.4 °F 70% 30.10 in 10.0 mi East 3.5 mph - N/A   Mostly Cloudy
11:55 AM 84.2 °F 89.6 °F 71.6 °F 66% 30.10 in 10.0 mi NE 3.5 mph - N/A   Mostly Cloudy
12:55 PM 87.8 °F 95.6 °F 73.4 °F 62% 30.09 in 10.0 mi North 8.1 mph - N/A   Mostly Cloudy
1:55 PM 86.0 °F 90.4 °F 69.8 °F 58% 30.07 in 10.0 mi NNE 4.6 mph - N/A   Mostly Cloudy
2:55 PM 89.6 °F 96.2 °F 71.6 °F 55% 30.05 in 10.0 mi North 4.6 mph - N/A   Scattered Clouds
3:55 PM 89.6 °F 96.2 °F 71.6 °F 55% 30.03 in 10.0 mi Variable 3.5 mph - N/A   Scattered Clouds
4:55 PM 89.6 °F 96.2 °F 71.6 °F 55% 30.03 in 10.0 mi NNE 3.5 mph - N/A   Scattered Clouds
5:55 PM 89.6 °F 96.2 °F 71.6 °F 55% 30.03 in 10.0 mi North 4.6 mph - N/A   Scattered Clouds
6:55 PM 86.0 °F 93.4 °F 73.4 °F 66% 30.04 in 10.0 mi Calm Calm - N/A   Scattered Clouds
7:55 PM 78.8 °F - 73.4 °F 83% 30.05 in 10.0 mi Calm Calm - N/A   Scattered Clouds
8:55 PM 77.0 °F - 73.4 °F 89% 30.07 in 10.0 mi Calm Calm - N/A   Scattered Clouds
9:55 PM 75.2 °F - 73.4 °F 94% 30.08 in 10.0 mi Calm Calm - N/A   Scattered Clouds
10:55 PM 75.2 °F - 73.4 °F 94% 30.08 in 10.0 mi Calm Calm - N/A   Scattered Clouds
11:55 PM 75.2 °F - 73.4 °F 94% 30.08 in 10.0 mi Calm Calm - N/A   Mostly Cloudy